Flag for United Kingdom Weather past 2 weeks in Canterbury, England, United Kingdom

Now
50 °F

Fog.


Feels Like: 48 °F
Forecast: 51 / 63 °F
Wind: 6 mph from Southwest

Location: Manston


UV Index: 0 (Low)

Visibility: 4 mi


Pressure: 30.12 "Hg

Humidity: 97%

Dew point: 49 °F

Location of CanterburyLocation

Historic Weather in Canterbury

°F

Canterbury temperature yesterday

Maximum temperature yesterday: 60 °F (at 1:00 PM)
Minimum temperature yesterday: 46 °F (at 3:00 AM)
Average temperature yesterday: 53 °F

Past Weeks' High & Low Weather Summary

 TemperatureHumidityPressure
High63 °F (Apr 17, 1:00 PM)100% (Apr 11, 11:00 PM)30.46 "Hg (Apr 11, 11:00 PM)
Low39 °F (Apr 9, 4:00 AM)48% (Apr 13, 5:00 PM)29.63 "Hg (Apr 20, 4:00 PM)
Average50 °F78%30.09 "Hg
* Reported Apr 9 3:00 AM — Apr 24 3:00 AM, Canterbury, Weather by CustomWeather, © 2014

Note: Actual official high and low records may vary slightly from our data, if they occured in-between our weather recording intervals... More about our weather records

Advertising

Historic Weather Conditions — Data for Previous 24 hours

 ConditionsComfort  
Time TempWeatherWind HumidityBarometerVisibility
3:00 AM
Apr 24
50 °FFog.6 mph97%30.12 "Hg4 mi
2:00 AM51 °FCool.3 mph95%30.12 "Hg7 mi
1:00 AM52 °FCool.5 mph91%30.13 "Hg12 mi
12:00 AM52 °FCool.5 mph89%30.12 "Hg14 mi
11:00 PM
Apr 23
52 °FLight rain. Overcast.6 mph88%30.13 "Hg9 mi
10:00 PM53 °FRain showers. Overcast.6 mph84%30.13 "Hg11 mi
9:00 PM53 °FCool.7 mph81%30.12 "Hg12 mi
8:00 PM53 °FSmoke.7 mph92%30.10 "Hg5 mi
7:00 PM53 °FSmoke.9 mph89%30.09 "Hg5 mi
6:00 PM55 °FSmoke.9 mph88%30.09 "Hg5 mi
5:00 PM56 °FCool.12 mph81%30.08 "Hg7 mi
4:00 PM58 °FCool.12 mph77%30.08 "Hg9 mi
3:00 PM56 °FCool.13 mph81%30.09 "Hg7 mi
2:00 PM58 °FCool.14 mph78%30.08 "Hg7 mi
1:00 PM60 °FCool.13 mph75%30.09 "Hg9 mi
12:00 PM59 °FCool.10 mph79%30.09 "Hg7 mi
11:00 AM57 °FCool.12 mph75%30.09 "Hg11 mi
10:00 AM58 °FCool.10 mph73%30.08 "Hg13 mi
9:00 AM54 °FSmoke.8 mph94%30.07 "Hg3 mi
8:00 AM51 °FFog.7 mph100%30.06 "Hg2 mi
7:00 AM50 °FFog.8 mph100%30.05 "Hg2 mi
6:00 AM49 °FFog.6 mph100%30.04 "Hg2 mi
5:00 AM49 °FFog.9 mph100%30.03 "Hg3 mi
4:00 AM48 °FFog.6 mph100%30.03 "Hg3 mi
Weather by CustomWeather, © 2014

See weather overview